Orbital Elements at Epoch 2459000.5 (2020-May-31.0) TDB
Reference: JPL 19 (heliocentric ecliptic J2000)
Element | Value | Uncertainty (1-sigma) | Units |
e | .2132434024407074 | 8.237e-08 | |
a | 2.631056422998283 | 1.5405e-08 | au |
q | 2.070000999344652 | 2.1242e-07 | au |
i | 17.43758345586885 | 6.0713e-06 | deg |
node | 340.8853460115034 | 1.4251e-05 | deg |
peri | 40.5820870432736 | 1.765e-05 | deg |
M | 152.1723391858179 | 1.3516e-05 | deg |
tp | 2458341.588806774825 (2018-Aug-11.08880677) | 5.5206e-05 | TDB |
period | 1558.811744829708 4.27 | 1.3691e-05 3.748e-08 | d yr |
n | .2309451421533445 | 2.0283e-09 | deg/d |
Q | 3.192111846651913 | 1.869e-08 | au |
|
| | Orbit Determination Parameters
Additional Information
|